Location: Hurstbourne Priors
(51.2000°N, 1.3667°W)
Time: 22:54:36
(UTC+00:00)

Explorer 7 - Visible Passes

Search period start: 18 April 2021 00:00
Search period end: 28 April 2021 00:00
Orbit: 484 x 677 km, 50.3° (Epoch: 18 April)

Date Brightness Start Highest point End Pass type
(mag) Time Alt. Az. Time Alt. Az. Time Alt. Az.
18 Apr 9.0 03:09:24 15° S 03:09:24 15° S 03:10:35 10° SSE visible
18 Apr 8.0 20:27:03 10° SSW 20:30:22 24° SE 20:32:01 19° ESE visible
18 Apr 8.1 22:06:11 10° WSW 22:08:25 30° SW 22:08:25 30° SW visible
19 Apr 7.6 20:30:58 10° SSW 20:34:36 32° SSE 20:37:33 15° E visible
19 Apr 7.2 22:10:34 10° WSW 22:13:54 54° SW 22:13:54 54° SW visible
20 Apr 7.2 20:35:04 10° SW 20:38:55 42° SSE 20:42:33 13° E visible
20 Apr 6.9 22:15:00 10° W 22:18:52 72° SW 22:18:52 72° SW visible
21 Apr 7.0 20:39:18 10° WSW 20:43:16 54° SSE 20:47:11 12° E visible
21 Apr 6.8 22:19:27 10° W 22:23:29 78° SW 22:23:29 78° SW visible
22 Apr 6.8 20:43:37 10° WSW 20:47:40 65° SSE 20:51:35 12° E visible
22 Apr 6.8 22:23:53 10° W 22:27:52 75° SW 22:27:52 75° SW visible
23 Apr 6.8 20:48:01 10° WSW 20:52:05 74° S 20:55:51 14° E visible
23 Apr 7.0 22:28:20 10° W 22:32:08 65° SW 22:32:08 65° SW visible
24 Apr 6.8 20:52:26 10° W 20:56:32 80° S 21:00:02 15° E visible
24 Apr 7.2 22:32:47 10° W 22:36:18 53° WSW 22:36:18 53° WSW visible
25 Apr 6.8 20:56:53 10° W 21:00:58 80° S 21:04:09 18° E visible
25 Apr 7.6 22:37:14 10° W 22:40:25 42° WSW 22:40:25 42° WSW visible
26 Apr 6.8 21:01:19 10° W 21:05:24 77° S 21:08:14 21° ESE visible
26 Apr 8.0 22:41:44 10° W 22:44:30 32° WSW 22:44:30 32° WSW visible
27 Apr 6.8 21:05:45 10° W 21:09:50 69° SSW 21:12:19 24° ESE visible
27 Apr 8.5 22:46:17 10° W 22:48:35 24° WSW 22:48:35 24° WSW visible
